Lapse_Rate
7.9 8.5 8.6 7.8 8.3 7.7 7.9 7.3 6.6 6.8 6.5 6.4 7.0 7.0 7.1 6.8 6.5 6.1 6.0 5.9 6.7 5.9 5.7 5.6 5.5 5.2 5.4 5.2 6.8 7.6 8.1 7.4 7.1 7.2 7.1 6.4 5.8 5.7 6.5 6.2 6.5 6.5 6.5 6.4 6.1 5.7 5.8
6.4 7.1 7.7 7.5 6.3 6.3 7.3 7.3 6.8 6.6 6.9 6.3 6.4 6.1 6.0 6.2 6.1 6.4 6.4 6.4 5.9 5.7 5.4 5.3 5.2 5.0 5.9 6.5 7.6 7.8 7.4 7.0 7.5 6.9 6.8 6.3 6.4 6.4 6.2 6.3 6.4 6.1 6.3 5.9 5.8 5.8 5.9
5.1 5.3 5.7 6.4 6.3 5.8 5.9 6.3 6.5 6.6 6.6 6.7 6.3 6.1 5.3 5.0 4.8 5.2 5.4 5.3 5.3 5.2 5.1 5.2 5.5 5.9 5.3 6.5 7.4 7.4 7.8 8.0 8.0 7.6 6.9 7.0 6.5 5.9 5.8 6.3 5.8 6.2 6.5 6.5 6.2 6.1 6.4
4.2 4.6 4.7 5.0 5.1 5.3 5.2 5.0 5.3 5.6 5.9 6.0 5.9 5.8 5.9 5.7 5.4 5.0 4.8 4.8 5.1 5.3 5.2 5.3 5.6 4.5 6.4 7.8 8.1 8.2 8.4 7.9 7.9 7.9 7.7 7.5 7.4 6.4 6.4 5.7 5.8 6.5 6.5 6.5 6.5 6.4 6.3
3.6 3.6 4.0 4.3 4.5 4.5 4.5 4.5 4.4 4.4 4.7 5.1 5.1 4.9 4.6 4.6 4.5 4.5 5.7 5.9 5.3 5.0 4.8 5.3 6.0 5.0 6.5 8.2 7.7 7.4 7.6 7.3 6.9 7.4 7.6 8.0 7.3 6.1 6.0 6.5 6.5 6.5 6.5 6.5 6.5 6.2 6.5
3.8 3.4 3.1 3.4 3.7 4.0 4.2 4.1 4.2 4.2 4.1 3.9 3.6 3.5 3.7 4.6 4.9 5.2 5.5 5.2 5.8 5.2 6.0 6.5 6.7 5.7 6.9 6.7 7.4 7.0 7.0 7.4 7.0 6.3 6.2 6.7 5.5 6.5 6.5 6.5 6.5 6.5 6.5 6.5 6.5 6.5 6.5
3.7 3.5 3.3 3.0 3.0 3.2 3.4 3.7 3.8 3.8 3.5 3.3 3.4 3.2 3.2 3.6 4.4 3.8 4.1 3.1 3.0 4.1 4.4 6.4 6.4 6.5 7.1 7.0 7.4 7.3 7.2 7.0 6.7 6.7 6.5 6.3 6.5 6.5 6.5 6.5 6.5 6.5 6.5 6.5 6.5 6.5 6.5
3.3 3.3 3.2 3.1 3.2 3.0 2.9 2.9 3.0 3.0 2.9 3.0 3.0 3.0 3.3 4.0 4.1 5.2 1.8 2.3 4.1 4.2 5.4 6.8 6.5 6.6 7.3 7.3 6.2 6.7 7.8 6.6 6.4 6.5 6.4 6.5 6.5 6.5 6.5 6.5 6.5 6.5 6.5 6.5 6.5 6.5 6.5
3.1 2.9 2.8 2.7 2.7 2.8 2.8 2.7 2.7 2.5 2.2 2.0 2.1 2.4 3.3 4.0 4.3 3.0 2.6 4.1 4.6 4.2 5.5 6.3 6.9 6.8 6.8 6.9 6.5 6.8 7.2 6.5 6.5 6.5 6.5 6.5 6.5 6.4 6.5 6.5 6.5 6.5 6.5 6.5 6.5 6.5 6.5
3.1 3.0 2.8 2.5 2.2 2.3 2.3 2.5 2.5 2.2 2.0 1.7 1.5 1.5 1.8 2.4 3.2 2.7 3.7 4.5 4.7 4.4 6.5 6.5 6.5 6.7 6.5 6.7 6.4 7.2 7.2 6.7 6.4 6.5 6.5 6.5 6.5 6.5 6.5 6.5 6.5 6.5 6.5 6.5 6.5 6.5 6.5
2.7 2.7 2.7 2.6 2.4 2.0 1.8 2.0 2.2 2.2 1.8 1.4 1.3 1.2 1.4 1.8 2.3 3.4 4.6 4.3 4.5 4.1 6.5 6.5 6.2 7.1 6.6 6.4 6.3 6.5 6.7 6.6 6.5 6.5 6.5 6.5 6.5 6.5 6.5 6.5 6.5 6.5 6.5 6.5 6.5 6.5 6.5
3.0 2.7 2.4 2.5 2.4 2.2 2.0 1.7 1.7 1.6 1.5 1.2 0.9 0.8 1.1 1.8 1.3 3.6 3.9 3.5 3.8 6.5 6.5 6.5 6.4 6.4 6.4 6.3 6.5 6.3 6.0 6.5 6.2 6.5 6.5 6.5 6.1 6.5 6.5 6.5 6.5 6.5 6.5 6.5 6.5 6.5 6.5
2.2 2.7 2.7 2.4 2.5 2.6 2.3 2.1 1.8 1.4 1.1 0.7 0.4 0.4 0.6 2.2 3.2 3.0 2.7 3.0 6.5 6.5 6.5 6.5 6.5 6.5 6.5 6.5 6.5 6.5 6.5 6.5 6.5 6.5 6.5 6.5 6.5 6.5 6.4 6.5 6.5 6.5 6.5 6.5 6.5 6.5 6.5
2.2 2.1 2.4 2.6 2.5 2.6 2.8 2.2 2.0 1.8 1.0 0.5 0.1 0.5 1.0 2.6 2.9 2.7 2.3 6.0 6.5 6.5 6.5 6.5 6.5 6.5 6.5 6.5 6.5 6.5 6.5 6.5 6.5 6.5 6.5 6.5 6.5 6.5 6.5 6.5 6.5 6.5 6.5 6.5 6.5 6.5 6.5
1.9 1.8 1.9 2.0 2.7 3.1 2.6 2.6 2.3 1.7 1.1 0.6 0.0 -1.1 0.8 1.6 2.8 1.8 2.9 6.5 6.5 6.5 6.5 6.5 6.5 6.5 6.5 6.5 6.5 6.5 6.5 6.5 6.5 6.5 6.5 6.5 6.5 6.5 6.5 6.5 6.5 6.5 6.5 6.5 6.5 6.5 6.5
2.1 2.0 2.0 2.0 2.3 3.2 3.2 3.2 2.9 2.4 1.5 0.6 -1.5 0.2 1.6 2.2 2.5 1.9 5.5 6.5 6.5 6.4 6.5 6.5 6.5 6.5 6.5 6.5 6.5 6.5 6.5 6.5 6.5 6.4 5.5 6.5 6.5 6.5 6.5 6.5 6.5 6.5 6.5 6.5 6.5 6.5 6.5
2.3 2.2 2.4 2.3 2.5 2.8 4.8 4.5 3.6 2.7 2.0 1.1 -0.6 2.1 2.5 2.3 1.7 2.8 6.5 6.5 6.5 6.3 6.3 6.5 6.5 6.5 6.5 6.5 6.5 6.5 6.5 6.5 6.5 6.5 5.9 6.5 6.5 6.5 6.5 6.5 6.5 6.5 6.5 6.5 6.5 6.5 6.5
2.7 2.7 3.0 3.0 3.6 4.3 5.0 4.7 4.2 2.9 2.2 0.3 0.4 5.1 2.0 1.6 4.0 4.4 6.5 6.5 5.9 6.4 6.1 6.4 6.4 6.5 6.5 6.5 6.5 6.5 6.5 6.5 5.3 5.7 6.5 6.5 6.5 6.5 6.5 6.5 6.5 6.5 6.5 6.5 6.5 6.5 6.5
4.0 4.0 3.9 4.2 4.3 5.3 5.0 4.7 4.6 3.9 2.6 0.2 2.0 2.0 1.5 2.1 6.5 6.5 6.0 6.5 6.2 6.5 6.4 6.5 6.5 6.5 6.5 6.5 6.5 6.5 6.5 6.1 5.0 6.3 6.5 6.5 6.5 6.5 6.5 6.5 6.5 6.5 6.5 6.5 6.5 6.5 6.5
4.3 4.8 4.9 4.7 4.7 5.3 5.4 5.0 4.7 4.5 3.4 1.0 2.8 6.5 3.2 2.2 2.6 6.4 6.5 6.5 6.5 5.8 6.3 6.1 6.4 6.4 6.5 6.5 6.5 6.5 6.5 6.4 5.4 5.9 6.9 6.2 6.5 6.5 6.5 6.5 6.5 6.5 6.5 6.5 6.5 6.5 6.5
4.6 4.4 4.6 4.7 4.9 5.1 5.5 5.3 5.0 4.5 3.9 2.8 2.7 5.4 5.1 6.5 5.9 6.2 6.4 6.5 6.5 6.5 6.1 5.9 6.5 6.5 6.5 6.5 6.5 6.5 6.5 6.5 6.3 6.6 6.2 6.5 6.5 6.5 6.5 6.5 6.5 6.5 6.5 6.5 6.5 6.5 6.5
5.9 5.4 5.2 4.9 4.9 5.0 5.3 5.4 5.0 4.2 4.1 4.2 4.5 5.4 4.6 4.7 5.0 6.4 6.5 6.5 6.5 6.5 6.4 6.5 6.5 6.5 6.5 6.5 6.5 6.5 6.5 6.5 6.5 6.5 6.5 6.4 6.5 6.5 6.5 6.5 6.5 6.5 6.5 6.5 6.5 6.5 6.5
6.2 6.1 5.9 5.8 5.3 5.3 5.7 5.4 5.3 4.4 4.0 4.4 4.2 4.3 5.2 5.9 6.1 6.5 6.5 6.5 6.5 6.2 5.6 5.7 5.9 6.5 6.5 6.4 5.2 4.2 4.5 4.6 5.5 6.4 6.5 6.5 6.5 6.5 6.5 6.5 6.5 6.5 6.5 6.5 6.5 6.5 6.5
5.3 5.6 5.8 6.0 5.8 5.7 5.8 5.2 5.2 5.0 4.0 4.2 4.6 5.5 5.8 6.5 6.5 6.5 6.5 6.3 6.5 6.2 6.5 5.9 4.8 6.3 5.5 4.8 4.3 3.9 4.4 5.0 5.3 5.9 5.1 6.5 6.5 6.5 6.5 6.5 6.5 6.5 6.5 6.5 6.5 6.5 6.5
5.8 5.8 5.3 5.3 5.6 5.8 5.9 5.9 5.3 5.1 4.7 3.4 3.9 4.8 5.7 6.5 6.5 6.4 6.1 6.4 6.0 5.3 6.1 6.0 5.6 4.7 4.6 5.1 6.5 6.5 6.5 6.5 6.5 6.5 6.5 6.3 6.5 6.5 6.5 6.5 6.5 6.5 6.5 6.5 6.5 6.5 6.5
6.3 5.9 5.8 5.2 4.8 4.9 5.5 5.9 5.5 5.5 5.4 3.5 3.6 3.7 4.9 6.5 6.5 6.8 6.1 5.9 6.5 6.5 6.5 5.9 4.6 4.1 5.2 6.2 6.5 6.5 6.5 6.5 6.5 6.5 6.3 6.5 6.5 6.5 6.5 6.5 6.5 6.5 6.5 5.9 6.5 6.5 6.5
6.4 6.2 6.1 6.1 5.6 5.3 5.0 5.1 5.5 5.6 5.6 4.2 4.0 4.1 3.9 6.2 5.6 5.7 6.2 6.3 5.4 6.2 6.5 5.9 5.4 5.6 5.6 6.5 6.5 6.5 6.5 6.5 6.5 6.5 6.5 6.5 6.5 6.5 6.5 6.5 6.5 6.5 6.3 5.2 6.5 6.5 6.2
6.4 6.5 6.6 6.6 6.2 5.8 5.5 5.5 5.4 5.3 5.5 6.1 5.1 4.3 4.6 5.1 6.3 6.1 5.7 6.4 6.5 6.1 6.5 5.7 6.1 6.0 6.3 6.5 6.5 6.5 6.5 6.5 6.5 6.5 6.5 6.5 6.5 6.5 6.5 6.5 6.5 5.8 6.3 6.5 6.0 4.7 4.8
6.8 6.6 6.4 6.6 7.0 6.9 6.6 6.4 6.3 6.5 6.9 6.8 6.4 4.8 4.8 5.2 6.3 4.6 5.6 6.2 6.8 6.3 6.9 5.5 6.1 5.6 6.4 6.5 6.5 6.5 6.5 6.5 6.5 6.5 6.5 6.5 6.5 6.5 6.5 6.5 6.3 4.7 4.5 2.2 3.1 4.7 3.6
Wind_Speed
28 28 28 29 29 30 30 29 28 29 34 37 29 25 20 18 16 12 9 12 15 11 10 8 6 5 4 6 4 5 7 7 12 6 5 5 7 5 3 4 2 2 3 5 5 7 5
27 28 28 29 29 30 30 29 28 28 28 29 32 33 32 28 23 19 16 14 10 8 7 6 5 5 2 8 6 6 5 6 4 6 6 7 4 4 2 3 2 4 4 7 6 7 5
25 26 27 28 29 28 27 28 28 28 27 26 26 25 24 22 19 16 13 9 7 6 5 3 6 1 8 4 5 9 7 2 2 2 3 3 3 4 3 7 5 5 6 7 8 8 5
24 24 25 26 27 27 27 27 26 27 27 25 25 24 21 18 14 11 7 6 4 1 4 5 7 4 4 4 6 3 1 3 4 3 2 2 2 1 2 3 7 5 2 4 6 5 4
22 22 22 23 24 24 25 25 26 26 26 25 23 23 23 23 21 18 12 8 8 12 10 8 4 6 2 3 0 3 2 2 5 2 3 3 2 1 4 2 4 6 3 4 8 7 4
21 20 20 20 21 22 22 23 23 24 25 25 25 24 24 24 24 20 15 8 11 11 6 1 2 4 3 1 3 4 3 2 2 6 6 1 3 2 3 2 3 5 5 5 7 5 6
20 19 19 18 19 19 20 21 21 21 22 22 22 23 23 23 25 16 6 4 5 5 8 2 2 1 1 4 1 3 4 4 2 1 2 2 2 4 7 5 6 4 5 7 7 8 6
17 18 18 18 18 18 18 18 19 19 19 19 18 19 20 20 18 18 5 6 3 2 3 1 1 1 1 1 3 4 2 1 2 2 3 4 4 7 6 5 4 2 5 7 7 4 4
16 16 16 17 17 17 18 17 17 17 18 19 18 15 15 19 9 5 5 3 1 3 1 3 2 2 3 1 2 2 1 2 1 3 2 4 6 6 3 4 5 3 5 5 6 7 5
14 14 15 15 16 16 16 16 17 17 17 18 20 18 16 19 6 2 2 2 2 2 4 5 3 2 1 1 2 2 2 2 3 2 5 5 3 1 3 4 1 5 3 5 8 6 4
14 14 13 14 14 15 16 16 17 17 18 18 19 16 14 6 2 2 2 4 2 3 5 3 4 1 2 0 3 2 1 2 2 4 4 6 3 3 3 3 0 7 4 5 4 3 4
15 13 13 13 13 13 15 16 17 19 19 19 20 16 11 3 2 1 4 3 3 6 3 4 2 2 3 1 2 2 2 2 3 3 2 7 3 3 5 3 4 6 5 5 0 1 2
14 14 13 13 14 13 14 15 16 18 20 21 21 16 6 1 1 3 2 3 5 6 2 5 3 3 3 3 2 2 2 4 3 6 5 6 3 2 2 3 5 6 4 4 4 2 5
15 14 14 13 13 15 16 17 17 19 21 22 23 6 1 1 2 1 2 5 7 3 3 3 3 3 2 2 2 2 1 2 3 3 3 3 7 2 2 3 3 2 0 2 5 3 5
19 16 15 15 14 13 15 17 19 21 23 25 11 2 2 3 2 2 4 5 5 5 2 5 5 2 3 2 1 3 1 3 3 3 1 5 6 5 3 2 5 1 1 1 3 2 4
17 18 17 16 15 16 15 16 19 21 25 20 2 2 2 4 3 4 4 3 3 3 2 1 0 1 3 4 2 4 2 3 5 4 5 2 6 3 4 2 1 2 1 4 2 4 5
18 18 19 17 17 17 16 16 16 20 25 9 3 3 2 3 3 4 2 4 3 2 3 4 3 3 3 3 2 2 4 2 4 4 4 4 4 6 2 4 5 1 1 1 3 3 3
18 17 17 18 18 18 17 16 15 17 25 7 2 2 2 3 3 1 1 3 1 3 1 3 2 4 4 2 3 3 4 5 7 6 3 3 3 5 10 4 4 3 6 5 4 4 3
16 16 16 17 18 18 17 16 13 13 14 2 2 2 1 3 1 2 4 3 2 3 3 3 3 5 2 3 3 4 4 2 7 7 6 5 2 5 8 5 3 4 4 4 4 2 6
17 14 14 15 16 17 16 16 12 11 9 2 2 3 3 3 1 2 2 3 2 2 3 3 4 2 2 3 5 4 3 2 5 4 6 4 3 7 7 7 3 4 5 6 5 3 3
16 14 14 12 12 14 14 14 12 9 8 2 2 2 1 3 2 2 1 2 3 3 4 4 3 7 7 4 3 5 5 1 2 5 3 3 6 5 13 19 15 18 16 12 11 10 7
16 15 13 12 11 11 12 12 12 7 7 1 1 1 1 3 3 3 4 4 4 3 6 5 5 2 7 6 8 6 5 4 7 2 6 3 4 2 7 9 9 10 16 19 19 20 21
19 15 13 12 11 11 11 10 10 5 0 1 1 0 2 3 2 2 4 6 7 5 5 4 9 3 6 14 11 7 6 4 5 9 8 5 2 3 6 5 8 7 9 14 6 6 17
16 14 14 12 11 11 10 9 9 7 9 1 2 1 1 4 3 5 3 4 7 7 6 3 5 5 5 1 4 4 4 6 7 7 5 6 3 2 5 7 3 4 3 9 13 7 17
15 14 13 12 11 12 10 7 9 9 11 3 1 2 3 4 5 8 10 9 8 6 6 7 7 2 2 4 3 6 3 4 1 2 6 4 4 3 3 3 9 3 3 6 7 8 13
15 14 13 11 11 11 8 9 10 12 9 3 2 2 2 2 7 12 4 4 5 4 3 4 2 2 4 2 1 3 4 4 3 2 6 4 4 3 2 3 5 3 1 2 2 6 5
14 14 13 12 12 11 11 10 13 14 11 6 3 7 2 3 4 6 5 5 4 3 3 2 3 2 1 3 3 5 5 4 5 8 6 3 3 7 6 5 10 10 4 5 1 5 2
14 14 15 12 11 11 12 12 13 13 14 7 2 12 4 4 7 9 7 9 9 4 7 2 1 1 2 4 4 4 4 5 3 6 7 10 10 6 5 5 10 7 4 6 6 2 3
14 14 14 15 13 12 12 12 12 14 14 12 3 6 12 6 5 2 8 13 12 13 8 5 5 4 5 3 3 1 4 1 5 4 3 3 7 7 12 9 4 7 7 7 3 4 6
Wind_Direction
38 37 40 40 39 34 34 36 32 44 58 57 64 73 84 88 99 100 66 45 76 83 83 74 57 22 355 51 54 301 321 327 328 340 27 15 31 6 13 331 300 257 288 320 309 300 269
42 38 37 37 38 40 37 38 31 35 44 61 70 63 60 63 65 75 73 64 70 74 70 49 10 314 71 82 274 301 311 319 344 17 12 47 24 319 329 307 314 306 290 287 297 283 265
42 43 40 38 38 35 37 36 31 34 37 44 54 59 67 81 85 75 65 61 55 55 48 357 341 89 62 102 352 334 290 277 351 63 39 30 39 54 337 322 316 281 301 309 266 259 233
42 43 43 42 40 37 33 30 32 35 37 38 34 32 37 49 59 73 77 89 96 47 313 317 341 63 62 313 315 319 2 290 331 336 52 302 356 301 195 300 334 313 14 342 303 339 233
39 41 43 43 39 38 35 32 30 29 28 27 30 30 27 23 16 5 2 349 339 329 309 320 46 85 158 292 297 298 29 338 322 325 269 268 48 293 343 300 344 10 310 318 322 306 279
37 37 37 41 42 38 34 33 30 28 26 22 18 14 12 17 15 4 349 333 328 354 17 13 61 60 340 250 273 315 296 314 336 345 347 94 38 17 1 55 249 272 264 235 244 280 311
34 33 33 34 37 36 35 30 28 26 24 20 14 11 6 3 5 6 27 12 17 351 34 91 279 108 357 316 9 298 303 359 317 124 237 238 74 274 266 243 245 246 256 267 266 264 280
32 32 29 29 28 29 30 29 25 21 18 15 11 5 2 358 358 17 43 81 157 168 329 354 87 10 315 47 333 280 56 20 337 297 311 20 258 257 257 268 304 313 291 292 286 290 301
29 27 28 26 25 22 20 19 20 16 10 6 -0 355 354 348 352 42 70 80 227 163 144 301 239 224 249 90 294 271 80 353 312 307 319 164 249 307 294 304 306 274 263 274 272 310 264
23 24 21 21 21 19 16 14 9 6 4 359 355 345 343 344 59 314 62 327 318 146 72 303 342 299 307 213 289 211 161 128 348 292 320 246 270 89 328 283 4 301 256 284 296 350 282
17 17 16 16 13 11 10 9 5 1 354 351 348 345 340 340 178 81 240 325 347 67 48 270 301 188 328 3 288 286 54 63 256 263 81 261 259 270 301 227 226 251 290 280 259 262 311
10 7 8 6 8 4 2 0 359 355 349 344 343 339 342 43 54 193 318 337 60 39 290 350 302 324 357 178 271 337 356 13 257 294 227 242 283 243 218 246 216 279 311 310 218 136 306
10 4 357 358 357 356 355 354 353 349 343 338 334 329 316 320 256 302 355 52 34 83 326 318 327 347 348 283 301 204 312 358 25 9 357 321 256 271 191 330 3 35 47 334 346 348 233
8 2 357 352 350 347 348 347 346 343 338 336 332 340 299 249 318 16 70 51 68 244 263 304 308 305 247 323 257 271 347 358 30 64 327 13 332 210 177 190 221 258 46 137 301 304 287
358 357 354 350 343 341 342 342 341 340 338 340 339 5 31 339 336 47 73 52 195 198 258 332 319 327 308 265 265 14 234 183 170 126 42 355 276 317 230 192 129 349 56 299 258 196 278
352 350 347 348 347 342 338 337 340 339 338 343 53 17 328 339 12 48 71 203 205 219 195 158 293 17 318 308 339 10 250 189 171 168 143 187 300 265 308 31 257 184 207 47 342 328 298
346 347 343 344 342 341 337 335 340 343 339 337 49 47 288 12 58 50 121 236 256 195 178 183 227 273 242 278 253 249 256 196 191 182 165 164 134 288 338 208 190 116 289 158 130 187 204
338 341 342 340 340 340 336 333 339 349 346 34 24 36 317 7 51 89 154 219 312 211 165 252 212 234 232 257 254 251 239 214 172 156 191 216 166 262 230 266 300 203 202 160 134 254 212
327 337 336 338 339 339 338 332 334 351 17 358 2 265 325 87 89 321 291 271 233 209 226 193 244 211 226 260 283 224 247 181 169 161 173 171 266 324 340 6 356 244 220 151 112 59 222
323 329 330 334 337 337 339 335 325 336 4 61 8 342 329 49 162 158 343 270 255 196 256 212 242 207 170 259 223 286 269 225 200 197 145 143 192 201 214 227 168 220 215 192 147 140 210
314 313 321 326 330 335 337 337 324 318 347 44 49 303 233 296 302 183 77 269 262 234 207 204 272 223 188 238 243 221 234 247 175 198 145 158 225 213 252 261 260 257 244 223 209 211 206
308 306 306 311 320 324 329 334 329 300 336 346 297 348 28 276 291 221 188 229 220 258 168 230 215 250 201 222 211 237 194 199 219 136 166 189 277 8 281 258 241 251 242 235 234 240 246
312 306 306 306 307 312 314 324 330 270 350 296 283 341 121 266 265 203 233 213 202 171 248 204 206 200 239 240 246 250 230 226 217 164 187 170 183 21 266 337 309 293 225 196 196 209 220
343 344 323 299 295 298 301 313 325 311 213 186 232 117 172 264 207 214 256 230 237 213 237 231 178 184 228 97 297 260 227 232 204 213 178 147 139 183 281 335 315 248 180 174 202 225 208
331 322 330 340 321 295 283 294 310 312 245 201 228 170 208 249 231 277 263 258 272 256 237 234 231 207 111 41 328 319 313 343 226 43 187 166 134 275 278 274 295 276 185 159 185 277 211
330 328 330 329 333 339 332 319 307 295 290 183 233 152 208 255 218 236 256 237 248 233 274 237 76 112 102 132 158 254 246 244 223 97 23 101 94 147 325 276 267 264 178 170 174 293 204
329 327 321 327 324 313 313 322 319 311 278 195 232 183 186 243 243 204 213 249 212 226 239 161 173 141 88 162 199 213 238 184 208 180 172 149 187 217 225 267 278 261 192 143 264 253 331
317 324 323 319 319 323 328 319 308 304 296 263 241 197 202 237 244 229 220 240 254 242 260 162 40 181 125 191 199 228 215 225 183 167 180 173 165 195 179 209 271 158 98 181 222 233 244
313 314 315 318 316 313 314 315 316 317 311 303 256 207 221 238 264 203 247 268 266 262 274 217 220 159 206 175 216 235 250 218 195 245 128 224 203 186 194 211 264 201 223 225 236 243 256